sat.trackr.live / text

‹ back to catalog

STARLINK-11362 [DTC]

NORAD 61535 · 2024-184D

PAYLOAD ACTIVE UNKNOWN

§ Identity

Operator
Country
US
Launch date
2024-10-15
Launch site
AFWTR
Launch vehicle
Mass (kg)
RCS (m²)

Purposes: comms

External: N2YO · Heavens-Above · Gunter

§ Orbital elements

Epoch: 2026-05-25T04:25:52.730112Z

Period
91.74 min
Inclination
53.1617°
Eccentricity
0.0001038
Mean motion
15.69711957 rev/d
Perigee alt
359.0 km
Apogee alt
360.4 km
Semi-major
6,737.9 km
B*
2.3599e-5
RAAN
219.0291°
Arg perigee
83.3293°
Mean anomaly
276.7843°
Rev number
9,243

§ Raw data

STARLINK-11362 [DTC]1 61535U 24184D   26145.18463808  .00002271  00000+0  23599-4 0  99982 61535  53.1617 219.0291 0001038  83.3293 276.7843 15.69711957 92435

JSON: /api/v1/satellites/61535 · /tle

For live sub-satellite position, see the globe view (requires WebGL).

§ Visibility from observer

Set your observer location to see the next 7 days of passes ≥ 10°. The values pass through the URL so the page stays shareable.

No JS? Fill the form by hand. The geolocation button needs JavaScript.